Location: Goettingen
(51.5300°N, 9.9433°E)
Time: 20:44:59
(UTC+02:00)

ISS - Pass Details

Date: 21 September 2021
Orbit: 419 x 423 km, 51.6° (Epoch: 20 September)

Event Time Altitude Azimuth Distance (km) Brightness Sun altitude
Rises 20:06:39 0° 233° (SW) 2,358 0.7 -8.0°
Reaches altitude 10° 20:08:48 10° 227° (SW) 1,497 -0.4 -8.3°
Maximum altitude 20:12:00 42° 155° (SSE) 613 -3.2 -8.8°
Enters shadow 20:14:52 12° 85° (E) 1,372 -1.8 -9.2°
